Belleville, IL

7:10 PM CDT on April 30, 2017 (GMT -0500)
Scott Air Force Base-Midamerica

Weather History for KBLV - March, 2014

Change the Weather History Date:

Thursday, March 6, 2014

  Actual Average Record
Temperature  
Mean Temperature 34 °F -  
Max Temperature 45 °F 52 °F 84 °F (1956)
Min Temperature 24 °F 30 °F -3 °F (1960)
Degree Days  
Heating Degree Days 30    
Moisture  
Dew Point 24 °F    
Average Humidity 77    
Maximum Humidity 95    
Minimum Humidity 44    
Precipitation  
Precipitation 0.00 in - - ()
Sea Level Pressure  
Sea Level Pressure 30.20 in    
Wind  
Wind Speed 5 mph (NE)    
Max Wind Speed 7 mph    
Max Gust Speed -    
Visibility 10 miles    
Events      
Averages and records for this station are not official NWS values.
T = Trace of Precipitation, MM = Missing Value Source: NWS Daily Summary

Daily Weather History Graph

Daily Weather History Graph

Search for Another Location

Airport or City:

Trip Planner

Search our weather history database for the weather conditions in past years. The results will help you decide how hot, cold, wet, or windy it might be!

Date:

Astronomy

Mar. 06, 2014 Rise Set
Actual Time 6:24 AM CST 5:57 PM CST
Civil Twilight 5:57 AM CST 6:24 PM CST
Nautical Twilight 5:26 AM CST 6:54 PM CST
Astronomical Twilight 4:56 AM CST 7:25 PM CST
Moon 9:36 AM CST (3/6) 11:59 PM CST (3/6)
Length of Visible Light 12h 26m
Length of Day
11h 33m
Waxing Crescent, 32% of the Moon is Illuminated
Mar 6
Waxing Crescent
Mar 8
First Quarter
Mar 16
Full
Mar 23
Last Quarter
Mar 30
New

Hourly Weather History & Observations

Time (CST) Temp. Windchill Dew Point Humidity Pressure Visibility Wind Dir Wind Speed Gust Speed Precip Events Conditions
12:58 AM 28.0 °F 21.7 °F 23.0 °F 81% 30.30 in 10.0 mi NNE 5.8 mph - N/A   Clear
1:58 AM 28.0 °F 20.8 °F 22.6 °F 80% 30.29 in 10.0 mi NNE 6.9 mph - N/A   Mostly Cloudy
2:58 AM 27.0 °F 20.5 °F 22.6 °F 84% 30.27 in 10.0 mi NNE 5.8 mph - N/A   Clear
3:58 AM 26.1 °F 19.4 °F 23.2 °F 89% 30.27 in 10.0 mi NNE 5.8 mph - N/A   Mostly Cloudy
4:58 AM 24.8 °F 17.9 °F 23.2 °F 94% 30.27 in 10.0 mi NNE 5.8 mph - N/A   Clear
5:33 AM 24.8 °F 17.9 °F 23.0 °F 93% 30.24 in 10.0 mi NNE 5.8 mph - N/A   Clear
5:43 AM 24.8 °F 17.9 °F 23.0 °F 93% 30.25 in 10.0 mi NNE 5.8 mph - N/A   Clear
5:53 AM 24.8 °F 19.1 °F 23.0 °F 93% 30.25 in 10.0 mi NNE 4.6 mph - N/A   Clear
5:58 AM 24.1 °F 17.0 °F 22.8 °F 95% 30.28 in 10.0 mi NNE 5.8 mph - N/A   Clear
6:58 AM 24.3 °F 19.9 °F 22.8 °F 94% 30.29 in 8.0 mi Variable 3.5 mph - N/A   Scattered Clouds
7:58 AM 27.1 °F 19.7 °F 23.9 °F 88% 30.31 in 10.0 mi NE 6.9 mph - N/A   Clear
8:58 AM 30.2 °F - 24.4 °F 79% 30.31 in 10.0 mi Variable 1.2 mph - N/A   Clear
9:58 AM 32.0 °F 25.6 °F 25.5 °F 77% 30.30 in 10.0 mi NNW 6.9 mph - N/A   Clear
10:58 AM 36.1 °F 31.4 °F 26.6 °F 68% 30.29 in 10.0 mi Variable 5.8 mph - N/A   Clear
11:58 AM 39.7 °F 35.6 °F 27.9 °F 63% 30.25 in 10.0 mi NE 5.8 mph - N/A   Clear
12:58 PM 41.7 °F 38.0 °F 28.4 °F 59% 30.21 in 10.0 mi NNE 5.8 mph - N/A   Clear
1:58 PM 43.7 °F 41.1 °F 27.7 °F 53% 30.17 in 10.0 mi Variable 4.6 mph - N/A   Clear
2:58 PM 45.5 °F 42.5 °F 25.7 °F 46% 30.15 in 10.0 mi NE 5.8 mph - N/A   Clear
3:58 PM 45.7 °F 42.7 °F 24.6 °F 44% 30.13 in 10.0 mi NE 5.8 mph - N/A   Clear
4:58 PM 45.1 °F 42.8 °F 24.4 °F 44% 30.13 in 10.0 mi ENE 4.6 mph - N/A   Clear
5:58 PM 41.5 °F - 25.0 °F 52% 30.14 in 10.0 mi East 1.2 mph - N/A   Clear
6:58 PM 35.2 °F - 24.6 °F 65% 30.14 in 10.0 mi East 2.3 mph - N/A   Clear
7:58 PM 30.7 °F - 24.1 °F 76% 30.13 in 10.0 mi Calm Calm - N/A   Clear
8:58 PM 29.7 °F - 22.8 °F 76% 30.14 in 7.0 mi Calm Calm - N/A   Clear
9:58 PM 29.3 °F 24.3 °F 24.6 °F 83% 30.12 in 10.0 mi SE 4.6 mph - N/A   Clear
10:33 PM 28.4 °F - 23.0 °F 80% 30.08 in 4.0 mi Calm Calm - N/A   Haze
10:38 PM 28.4 °F - 23.0 °F 80% 30.08 in 7.0 mi Calm Calm - N/A   Clear
10:43 PM 26.6 °F - 24.8 °F 93% 30.08 in 10.0 mi Calm Calm - N/A   Clear
10:58 PM 26.8 °F 22.8 °F 23.2 °F 86% 30.11 in 9.0 mi NW 3.5 mph - N/A   Clear
11:58 PM 24.6 °F - 21.9 °F 89% 30.09 in 10.0 mi North 1.2 mph - N/A   Clear